sat.trackr.live / text

‹ back to catalog

WORLDVIEW-1 (WV-1)

NORAD 32060 · 2007-041A

PAYLOAD ACTIVE UNKNOWN

§ Identity

Operator
Country
US
Launch date
2007-09-18
Launch site
AFWTR
Launch vehicle
Mass (kg)
RCS (m²)
5.48

Purposes: earth_obs

External: N2YO · Heavens-Above · Gunter

§ Orbital elements

Epoch: 2026-09-13T02:50:14.506080Z

Period
94.45 min
Inclination
97.3873°
Eccentricity
0.0001980
Mean motion
15.24591515 rev/d
Perigee alt
490.7 km
Apogee alt
493.4 km
Semi-major
6,870.1 km
B*
1.7752e-4
RAAN
14.6050°
Arg perigee
93.5830°
Mean anomaly
266.5634°
Rev number
5,627

§ Raw data

WORLDVIEW-1 (WV-1)1 32060U 07041A   26256.11822345  .00004304  00000+0  17752-3 0  99952 32060  97.3873  14.6050 0001980  93.5830 266.5634 15.24591515 56272

JSON: /api/v1/satellites/32060 · /tle

For live sub-satellite position, see the globe view (requires WebGL).

§ Visibility from observer

Set your observer location to see the next 7 days of passes ≥ 10°. The values pass through the URL so the page stays shareable.

No JS? Fill the form by hand. The geolocation button needs JavaScript.